DELTA 1 DEB, 10714

Orbit data source: Space-Track

DELTA 1 DEB, 10714 is space debris in LEO originally from a launch on Thu, 29 Jul 1976 UTC launched from the Air Force Western Test Range (AFWTR). Debris objects in space refer to the collection of defunct objects orbiting the Earth. Examples of debris include non-operational satellites, rocket bodies, and fragments generated from explosions, collisions, or faulty payload assembly.

Loading next visibility...
Identifier
10714, 1976-077AK
Orbit
LEO
Country
Flag of USUS
Related business
Manufacturer
Unknown
Mission
Spacecraft
Bus & Motor
Unknown
Mass
Unknown
Launch date (UTC)
1976-07-29 (50 years ago)
Launch vehicle
Unknown
Launch site
Air Force Western Test Range (AFWTR)
Object type
Payload
Rocket body
Debris
Shape & HBR
Unknown shape, 0.1 m
Radar Cross Section
Medium (>0.1 m² and <1 m²)

Expand to show TLE details & history
Last TLE update: 14 hours ago

TLE from 14 hours ago
0 DELTA 1 DEB
1 10714U 76077AK  26124.27306046  .00001208  00000-0  17083-1 0  9994
2 10714 103.3712  25.3225 0603859  41.2743  71.5505 11.54634577 87970
Epoch: 2026-05-04T06:33Z
TLE epoch observation values (Epoch: 2026-05-04T06:33:12.423Z)
Latitude
57.92259°
Longitude
-92.9676°
Altitude
1,769.886 km
Speed
7.056 km/s
True Right ascension
15h 09m 59s
True Declination
57° 47' 13"
Sunlit
Object was in daylight at epoch
Visualization orbit readout
Latitude
Unknown
Longitude
Unknown
Altitude
Unknown
Speed
Unknown
Apparent Right ascension
Unknown
Apparent Declination
Unknown
Sunlit
N/A
Visualization observer readout
Local Sidereal Time
04:41:47
Azimuth
Unknown
Elevation
Unknown
Doppler factor
Unknown
Orbital elements
Apogee altitude
2,387.529 km
Perigee altitude
1,389.171 km
Semi-major axis
8,266.487 km
Eccentricity
0.06039
Inclination
103.3712°
RAAN
25.3225°
Arg. of periapsis
41.2743°
True anomaly
78.25963°
Mean anomaly
71.5505°
Eccentric anomaly
74.89075°
Mean motion
2.88776 °/min
Orbital period
124.66 mins
BSTAR
0.017083
Loading maneuver chart data...
Computing Atmospheric mass density...
Loading historical data...
Loading historical data...
Loading historical data...
Loading historical data...
Loading historical data...
Loading historical data...
Loading historical data...

Documentation

Showing up to 5 results
|